Hourly Weather Rudusk

Today, 16 April, Friday

Time Temperature Precipitation Wind Pressure Humidity
00:00 +3°C° 0.1 mm 4 mps 756 mmHg 96%
01:00 +3°C° 0.1 mm 4 mps 756 mmHg 97%
02:00 +3°C° 0.5 mm 4 mps 756 mmHg 97%
03:00 +3°C° 0.5 mm 4 mps 756 mmHg 96%
04:00 +1°C° 0.5 mm 4 mps 756 mmHg 96%
05:00 +1°C° 0.3 mm 4 mps 756 mmHg 96%
06:00 +1°C° 0.3 mm 4 mps 756 mmHg 96%
07:00 +1°C° 0.3 mm 4 mps 756 mmHg 96%
08:00 +1°C° 0 mm 4 mps 756 mmHg 96%
09:00 +2°C° 0 mm 5 mps 756 mmHg 96%
10:00 +2°C° 0 mm 5 mps 756 mmHg 96%
11:00 +2°C° 0 mm 5 mps 756 mmHg 95%
12:00 +2°C° 0 mm 5 mps 756 mmHg 94%
13:00 +2°C° 0 mm 5 mps 756 mmHg 94%
14:00 +2°C° 0.5 mm 5 mps 756 mmHg 94%
15:00 +2°C° 0.5 mm 5 mps 755 mmHg 94%
16:00 +2°C° 0.5 mm 5 mps 755 mmHg 95%
17:00 +3°C° 0.9 mm 4 mps 755 mmHg 95%
18:00 +3°C° 0.9 mm 4 mps 756 mmHg 96%
19:00 +3°C° 0.9 mm 4 mps 756 mmHg 97%
20:00 +3°C° 0 mm 3 mps 756 mmHg 97%
21:00 +3°C° 0 mm 3 mps 756 mmHg 98%
22:00 +3°C° 0 mm 3 mps 756 mmHg 98%
23:00 +3°C° 0 mm 3 mps 756 mmHg 98%

Tomorrow, 17 April, Saturday

Time Temperature Precipitation Wind Pressure Humidity
00:00 +4°C° 0 mm 2 mps 756 mmHg 98%
01:00 +5°C° 0 mm 2 mps 756 mmHg 98%
02:00 +4°C° 0 mm 3 mps 756 mmHg 98%
03:00 +4°C° 0 mm 3 mps 756 mmHg 97%
04:00 +4°C° 0 mm 3 mps 756 mmHg 97%
05:00 +5°C° 0 mm 3 mps 756 mmHg 96%
06:00 +5°C° 0 mm 3 mps 756 mmHg 95%
07:00 +7°C° 0 mm 3 mps 756 mmHg 93%
08:00 +7°C° 0 mm 3 mps 756 mmHg 91%
09:00 +8°C° 0 mm 3 mps 756 mmHg 88%
10:00 +8°C° 0 mm 3 mps 757 mmHg 86%
11:00 +9°C° 0 mm 3 mps 757 mmHg 83%
12:00 +10°C° 0 mm 3 mps 757 mmHg 81%
13:00 +10°C° 0 mm 3 mps 757 mmHg 78%
14:00 +11°C° 0.2 mm 3 mps 756 mmHg 77%
15:00 +11°C° 0.2 mm 3 mps 756 mmHg 75%
16:00 +13°C° 0.2 mm 2 mps 756 mmHg 74%
17:00 +12°C° 0.2 mm 2 mps 756 mmHg 78%
18:00 +10°C° 0.2 mm 2 mps 757 mmHg 82%
19:00 +9°C° 0.2 mm 2 mps 757 mmHg 86%
20:00 +8°C° 0 mm 2 mps 757 mmHg 88%
21:00 +7°C° 0 mm 2 mps 757 mmHg 90%
22:00 +7°C° 0 mm 2 mps 757 mmHg 92%
23:00 +6°C° 0 mm 2 mps 757 mmHg 92%

Day after tomorrow, 18 April, Sunday

Time Temperature Precipitation Wind Pressure Humidity
00:00 +6°C° 0 mm 2 mps 757 mmHg 92%
01:00 +6°C° 0 mm 2 mps 758 mmHg 92%
02:00 +6°C° 0 mm 2 mps 757 mmHg 93%
03:00 +6°C° 0 mm 2 mps 757 mmHg 94%
04:00 +5°C° 0 mm 2 mps 757 mmHg 94%
05:00 +6°C° 0 mm 2 mps 757 mmHg 93%
06:00 +7°C° 0 mm 2 mps 757 mmHg 91%
07:00 +8°C° 0 mm 3 mps 758 mmHg 89%
08:00 +10°C° 0 mm 3 mps 757 mmHg 82%
09:00 +11°C° 0 mm 3 mps 757 mmHg 75%
10:00 +13°C° 0 mm 3 mps 757 mmHg 68%
11:00 +14°C° 0.1 mm 3 mps 757 mmHg 64%
12:00 +14°C° 0.1 mm 3 mps 757 mmHg 60%
13:00 +16°C° 0.1 mm 3 mps 757 mmHg 57%
14:00 +15°C° 0.2 mm 4 mps 757 mmHg 61%
15:00 +14°C° 0.2 mm 4 mps 757 mmHg 65%
16:00 +14°C° 0.2 mm 4 mps 756 mmHg 70%
17:00 +13°C° 0.2 mm 4 mps 757 mmHg 75%
18:00 +11°C° 0.2 mm 4 mps 757 mmHg 81%
19:00 +10°C° 0.2 mm 3 mps 757 mmHg 86%
20:00 +10°C° 0 mm 3 mps 757 mmHg 88%
21:00 +9°C° 0 mm 3 mps 757 mmHg 90%
22:00 +8°C° 0 mm 3 mps 757 mmHg 92%
23:00 +8°C° 0 mm 3 mps 757 mmHg 92%

19 April, Monday

Time Temperature Precipitation Wind Pressure Humidity
00:00 +8°C° 0 mm 3 mps 757 mmHg 91%
01:00 +8°C° 0 mm 2 mps 757 mmHg 91%
02:00 +8°C° 0 mm 2 mps 757 mmHg 91%
03:00 +8°C° 0 mm 2 mps 757 mmHg 90%
04:00 +8°C° 0 mm 2 mps 757 mmHg 89%
05:00 +8°C° 0 mm 2 mps 757 mmHg 87%
06:00 +9°C° 0 mm 3 mps 757 mmHg 84%
07:00 +9°C° 0 mm 3 mps 757 mmHg 81%
08:00 +10°C° 0 mm 3 mps 757 mmHg 72%
09:00 +11°C° 0 mm 4 mps 756 mmHg 63%
10:00 +12°C° 0 mm 4 mps 756 mmHg 54%
11:00 +13°C° 0 mm 4 mps 756 mmHg 51%
12:00 +13°C° 0 mm 4 mps 756 mmHg 49%
13:00 +14°C° 0 mm 4 mps 755 mmHg 46%
14:00 +14°C° 0 mm 4 mps 755 mmHg 47%
15:00 +13°C° 0 mm 4 mps 755 mmHg 48%
16:00 +13°C° 0 mm 4 mps 755 mmHg 50%
17:00 +12°C° 0.1 mm 4 mps 754 mmHg 58%
18:00 +11°C° 0.1 mm 4 mps 754 mmHg 66%
19:00 +8°C° 0.1 mm 4 mps 754 mmHg 74%
20:00 +9°C° 0 mm 3 mps 754 mmHg 78%
21:00 +8°C° 0 mm 3 mps 754 mmHg 83%
22:00 +7°C° 0 mm 2 mps 754 mmHg 87%
23:00 +6°C° 0 mm 2 mps 754 mmHg 89%

20 April, Tuesday

Time Temperature Precipitation Wind Pressure Humidity
00:00 +6°C° 0 mm 2 mps 753 mmHg 91%
01:00 +5°C° 0 mm 2 mps 753 mmHg 93%
02:00 +5°C° 0 mm 2 mps 753 mmHg 93%
03:00 +5°C° 0 mm 2 mps 753 mmHg 94%
04:00 +3°C° 0 mm 3 mps 752 mmHg 94%
05:00 +4°C° 0 mm 3 mps 752 mmHg 90%
06:00 +5°C° 0 mm 3 mps 752 mmHg 86%
07:00 +6°C° 0 mm 4 mps 752 mmHg 81%
08:00 +7°C° 0 mm 4 mps 752 mmHg 75%
09:00 +10°C° 0 mm 4 mps 751 mmHg 69%
10:00 +11°C° 0 mm 4 mps 751 mmHg 63%
11:00 +11°C° 0.1 mm 4 mps 751 mmHg 62%
12:00 +11°C° 0.1 mm 4 mps 750 mmHg 61%
13:00 +12°C° 0.1 mm 4 mps 750 mmHg 60%
14:00 +12°C° 0.1 mm 5 mps 750 mmHg 61%
15:00 +10°C° 0.1 mm 5 mps 749 mmHg 62%
16:00 +10°C° 0.1 mm 6 mps 749 mmHg 63%
17:00 +9°C° 0 mm 5 mps 749 mmHg 68%
18:00 +7°C° 0 mm 5 mps 749 mmHg 73%
19:00 +6°C° 0 mm 4 mps 749 mmHg 79%
20:00 +5°C° 0 mm 4 mps 749 mmHg 83%
21:00 +4°C° 0 mm 4 mps 749 mmHg 87%
22:00 +3°C° 0 mm 3 mps 748 mmHg 91%
23:00 +3°C° 0 mm 3 mps 748 mmHg 92%

21 April, Wednesday

Time Temperature Precipitation Wind Pressure Humidity
00:00 +3°C° 0 mm 4 mps 748 mmHg 92%
01:00 +1°C° 0 mm 4 mps 748 mmHg 92%
02:00 +1°C° 0 mm 4 mps 748 mmHg 93%
03:00 +1°C° 0 mm 4 mps 748 mmHg 93%
04:00 +1°C° 0 mm 4 mps 748 mmHg 94%
05:00 +3°C° 0 mm 4 mps 748 mmHg 88%
06:00 +3°C° 0 mm 5 mps 748 mmHg 83%
07:00 +5°C° 0 mm 5 mps 748 mmHg 77%
08:00 +6°C° 0 mm 5 mps 748 mmHg 71%
09:00 +7°C° 0 mm 6 mps 748 mmHg 64%
10:00 +9°C° 0 mm 7 mps 748 mmHg 57%
11:00 +9°C° 0 mm 6 mps 748 mmHg 58%
12:00 +9°C° 0 mm 6 mps 748 mmHg 59%
13:00 +9°C° 0 mm 5 mps 749 mmHg 61%
14:00 +10°C° 0 mm 5 mps 749 mmHg 59%
15:00 +10°C° 0 mm 5 mps 749 mmHg 58%
16:00 +12°C° 0 mm 5 mps 749 mmHg 56%
17:00 +10°C° 0.1 mm 4 mps 749 mmHg 62%
18:00 +8°C° 0.1 mm 4 mps 749 mmHg 67%
19:00 +8°C° 0.1 mm 3 mps 749 mmHg 73%
20:00 +7°C° 0 mm 3 mps 750 mmHg 76%
21:00 +7°C° 0 mm 3 mps 750 mmHg 79%
22:00 +5°C° 0 mm 3 mps 750 mmHg 82%
23:00 +5°C° 0 mm 3 mps 750 mmHg 83%
Show more